Location: Wyoming Infrared Observatory
(41.0971°N, 105.9765°W)
Time: 02:38:58
(UTC-06:00)

Daily predictions for brighter satellites

Satellite Brightness Start Highest point End
(mag) Time Altitude Azimuth Time Altitude Azimuth Time Altitude Azimuth
CZ-4B R/B 4.3 00:04:45 12° NNE 00:04:45 12° NNE 00:05:10 10° NNE
Gbstr 26 Del rocket 4.1 00:02:10 10° NW 00:05:19 40° NW 00:05:19 40° NW
Cosmos 1400 Rocket 4.2 00:11:14 39° NNW 00:11:14 39° NNW 00:14:09 10° N
Cosmos 1536 4.3 00:12:05 36° NNW 00:12:05 36° NNW 00:14:37 10° N
Meteor 2-15 Rocket 4.3 00:11:08 10° N 00:17:18 90° ESE 00:17:26 86° S
Meteor 2-14 Rocket 4.5 00:20:49 65° WSW 00:21:18 68° W 00:27:27 10° N
NOSS 3-1 (A) 3.9 00:14:31 10° NW 00:22:11 86° WSW 00:23:39 64° SSE
Cosmos 2369 Rocket 2.2 00:23:58 78° NNW 00:23:58 78° NNW 00:29:20 10° NNE
Meteor 2-15 4.4 00:18:29 10° NNW 00:24:33 68° W 00:24:44 68° WSW
Meteor 1-23 Rocket 4.3 00:20:45 10° NNW 00:25:57 66° WNW 00:25:57 66° WNW
H-2A R/B 3.9 00:21:53 10° NNE 00:24:44 36° NE 00:24:44 36° NE
CZ-2C R/B 3.9 00:29:53 10° NNE 00:33:24 30° ENE 00:33:24 30° ENE
H-2A R/B 4.5 00:34:32 12° W 00:35:23 12° W 00:37:21 10° WNW
Cosmos 2100 Rocket 4.4 00:37:27 52° E 00:37:27 52° E 00:43:29 10° NNE
ATLAS 2AS CENTAUR R/B 3.4 00:35:27 10° NNW 00:43:29 58° NE 00:46:07 41° ESE
MOS 1-B Rocket 4.0 00:45:51 74° E 00:46:06 75° ENE 00:52:53 10° N
Cosmos 1818 4.1 00:47:22 54° NE 00:47:22 54° NE 00:51:38 10° NE
NOSS 3-1 (C) 4.4 00:44:50 10° NW 00:52:10 48° WSW 00:52:31 48° WSW
Cosmos 2061 Rocket 4.1 00:53:10 63° E 00:53:10 63° E 00:59:27 10° NNE
Cosmos 1459 Rocket 4.1 00:53:47 63° ENE 00:53:47 63° ENE 00:59:30 10° NNE
USA 234 4.3 00:48:23 10° NE 00:54:26 41° NNW 01:00:27 10° W
Cosmos 2016 Rocket 4.5 00:56:08 47° E 00:56:08 47° E 01:01:40 10° NNE
Cosmos 1992 Rocket 4.5 00:58:42 57° NNW 00:58:42 57° NNW 01:03:12 10° NNE
Cosmos 1943 Rocket 2.4 01:00:09 63° NE 01:00:09 63° NE 01:04:51 10° NNE
ISS 0.0 01:00:45 10° NNW 01:02:23 13° N 01:02:38 13° N
Cosmos 1802 Rocket 4.1 01:04:04 66° E 01:04:04 66° E 01:10:07 10° NNE
ALOS 2 4.3 01:08:39 28° NW 01:08:39 28° NW 01:11:05 10° NNW
Cosmos 2173 Rocket 3.9 01:14:29 88° NNW 01:14:29 88° NNW 01:20:50 10° N
Lacrosse 5 rocket 3.9 01:19:38 15° NW 01:20:21 15° NNW 01:22:37 10° N
Cosmos 1725 Rocket 4.1 01:32:12 61° E 01:32:12 61° E 01:38:15 10° NNE
Lacrosse 5 4.0 01:35:50 13° WNW 01:39:09 23° NNW 01:43:14 10° NNE
SeaSat 1 3.5 01:40:59 37° ENE 01:41:33 39° NE 01:46:07 10° N
BREEZE-M DEB (TANK) 3.8 01:38:21 10° WNW 01:42:26 85° NNE 01:59:15 10° ESE
Tsikada Rocket 4.0 01:39:15 10° N 01:45:34 74° E 01:45:55 72° ESE
BREEZE-M DEB (TANK) 4.2 01:32:10 10° WNW 01:49:02 63° NNE 01:52:03 22° E
Cosmos 44 Rocket 4.4 01:45:12 10° NW 01:48:32 40° NW 01:48:32 40° NW
ATLAS 3B CENTAUR R/B 4.5 01:47:41 45° SSW 01:50:59 51° SSE 02:20:03 10° E
CZ-2C R/B 3.8 02:02:04 41° NW 02:02:04 41° NW 02:05:34 10° NNW
Meteor 1-21 4.2 01:57:50 10° NNW 02:03:00 72° NW 02:03:00 72° NW
Cosmos 2058 Rocket 4.0 02:05:01 47° NNE 02:05:01 47° NNE 02:08:14 10° N
Cosmos 1570 Rocket 4.1 02:05:22 73° NE 02:05:22 73° NE 02:10:12 10° NNE
NOSS 3-3 (A) 4.0 02:12:16 65° W 02:13:02 72° NW 02:19:46 10° NNE
NOSS 3-3 (C) 4.0 02:12:22 65° W 02:13:07 72° NW 02:19:51 10° NNE
CZ-2C R/B 3.8 02:10:19 10° N 02:14:49 30° WNW 02:14:55 30° WNW
Meteor 2-9 Rocket 4.2 02:15:38 84° SE 02:15:45 85° E 02:21:35 10° N
Cosmos 2219 3.9 02:14:35 10° NW 02:18:42 40° WNW 02:18:42 40° WNW
Cosmos 2227 Rocket 2.9 02:17:14 10° NNW 02:22:46 50° ENE 02:24:42 36° ESE
Meteor 1-15 Rocket 4.1 02:23:25 83° S 02:23:39 88° E 02:29:35 10° N
ATLAS CENTAUR R/B 3.2 02:24:30 29° E 02:24:30 29° E 02:28:16 10° NE
Cosmos 44 3.9 02:20:23 10° NW 02:24:18 50° NW 02:24:18 50° NW
BREEZE-M R/B 4.4 02:20:23 10° WNW 02:28:01 70° NNE 02:34:00 10° ESE
Cosmos 1666 4.4 02:30:40 29° NNW 02:30:40 29° NNW 02:32:46 10° N
SL-08 R/B 3.9 02:33:20 47° E 02:33:50 49° ENE 02:38:18 10° N
ATLAS 2AS CENTAUR R/B 3.7 02:27:07 10° NW 02:33:30 34° W 02:33:30 34° W
BREEZE-M DEB (TANK) 4.3 02:36:01 19° NE 02:36:01 19° NE 02:36:58 10° ENE
Cosmos 1464 Rocket 4.4 02:34:17 45° SE 02:35:48 55° E 02:41:58 10° NNE
Resurs 1-4 Rocket 4.4 02:33:21 10° ENE 02:36:10 14° E 02:38:40 11° ESE
Cosmos 2233 Rocket 3.9 02:36:46 64° WSW 02:37:19 67° W 02:43:26 10° N
ISS -0.6 02:41:15 17° ENE 02:41:15 17° ENE 02:42:26 10° E
Cosmos 2278 3.6 02:40:47 73° SSE 02:41:11 77° ESE 02:46:52 10° NNE
Cosmos 2369 3.7 02:42:24 66° SE 02:42:51 69° ESE 02:48:30 10° NNE
Cosmos 1943 Rocket 4.2 02:41:39 14° WNW 02:43:42 17° NW 02:47:13 10° N
Cosmos 2297 Rocket 2.8 02:38:32 10° NNW 02:44:05 53° ENE 02:47:02 27° SE
NPP 3.7 02:40:51 10° NNE 02:46:14 68° ESE 02:46:51 62° SE
Meteor 2-17 Rocket 4.5 02:46:02 57° WSW 02:46:42 60° W 02:52:46 10° N
Cosmos 405 Rocket 3.5 02:46:14 10° N 02:49:57 51° ENE 02:49:57 51° ENE
Cosmos 1814 Rocket 4.3 02:56:40 53° SE 02:57:26 59° ESE 03:02:41 10° NNE
CBERS-1 4.0 02:54:07 10° NNE 02:59:17 76° ESE 02:59:56 65° SSE
BREEZE-M DEB (TANK) 3.7 02:55:05 10° WNW 02:58:52 32° NW 02:58:52 32° NW
Cosmos 220 Rocket 4.0 02:56:27 10° NNW 03:00:31 75° NNE 03:00:31 75° NNE
Cosmos 2298 Rocket 3.9 02:56:19 10° NNW 03:01:39 89° WSW 03:02:30 64° SSE
Cosmos 1513 Rocket 4.4 03:03:06 48° SSE 03:04:51 75° E 03:10:54 10° N
Cosmos 2228 4.4 03:05:51 28° WNW 03:05:51 28° WNW 03:08:55 10° NNW
ERS-2 2.8 03:05:15 10° NNE 03:08:38 52° E 03:08:38 52° E
USA 161 3.6 03:11:10 27° NE 03:11:10 27° NE 03:13:07 10° NNE
Meteor 1-24 Rocket 4.2 03:09:26 10° N 03:15:07 60° ENE 03:18:44 23° SSE
IRAS Rocket 4.2 03:13:22 10° NNE 03:19:01 83° WNW 03:20:32 51° SSW
SeaSat 1 3.9 03:20:46 23° WNW 03:20:46 23° WNW 03:23:22 10° NW
Cosmos 990 Rocket 4.4 03:15:13 10° NNW 03:20:27 62° ENE 03:24:09 19° SE
Cosmos 858 Rocket 4.4 03:16:02 10° NNW 03:21:16 75° WSW 03:22:28 53° S
Cosmos 1891 Rocket 4.3 03:20:17 47° SSW 03:22:12 83° W 03:28:20 10° N
Cosmos 468 Rocket 3.9 03:21:35 57° SW 03:22:30 71° WNW 03:27:40 10° NNE
Okean O Rocket 4.3 03:22:41 10° ENE 03:24:37 13° E 03:26:32 10° ESE
Cosmos 1656 3.6 03:24:57 49° SSW 03:26:35 87° ESE 03:32:17 10° NNE
NOSS 2-1 (D) 3.6 03:27:08 54° WNW 03:27:25 55° NW 03:31:49 10° NNE
NOSS 2-1 (C) 3.6 03:28:29 53° WNW 03:28:49 55° NW 03:33:13 10° NNE
Cosmos 1953 4.2 03:26:55 18° SE 03:28:50 26° E 03:32:15 10° NNE
Cosmos 1707 3.0 03:27:24 10° NNW 03:30:56 56° WNW 03:30:56 56° WNW
SME Rocket 4.3 03:31:25 19° SSE 03:35:39 81° ENE 03:44:19 10° NNW
Cosmos 2034 Rocket 4.0 03:34:50 40° SSW 03:37:05 67° W 03:43:16 10° N
Cosmos 1408 Rocket 4.1 03:32:48 10° N 03:37:08 57° E 03:39:33 25° SSE
CZ-2D R/B 2.7 03:32:08 10° NNE 03:37:29 53° E 03:40:28 25° SSE
IRS-1C 4.2 03:32:35 10° N 03:37:51 61° WNW 03:39:25 42° SW
Cosmos 2150 Rocket 4.2 03:34:29 10° NNW 03:39:28 46° WSW 03:40:01 44° WSW
Cosmos 1766 Rocket 4.1 03:36:24 10° N 03:40:46 57° E 03:43:28 22° SSE
AQUA 4.4 03:38:05 10° N 03:42:33 40° WNW 03:43:27 36° W
NOSS 2-1 (E) 4.1 03:43:08 38° W 03:44:00 43° NW 03:48:24 10° NNE
Nadezhda 4 Rocket 3.9 03:39:51 10° N 03:46:04 83° W 03:50:07 23° S
SL-16 R/B 2.5 03:41:26 14° SSE 03:46:55 85° ENE 03:53:07 10° NNW
Cosmos 1898 Rocket 4.0 03:42:14 10° NW 03:47:10 39° WSW 03:47:46 37° WSW
Cosmos 1697 Rocket 2.7 03:50:22 36° SSW 03:52:45 78° WNW 03:58:27 10° NNE
Cosmos 1125 Rocket 4.3 03:48:20 10° N 03:53:25 50° ENE 03:58:26 10° SE
Cosmos 841 Rocket 3.4 03:51:36 36° SSW 03:53:50 88° WNW 03:59:09 10° NNE
NOSS 3-4 (A) 3.8 03:50:36 10° NW 03:57:31 63° WSW 04:04:50 10° SSE
NOSS 3-4 (C) 3.8 03:50:42 10° NW 03:57:40 64° WSW 04:05:01 10° SSE
Cosmos 1937 Rocket 3.8 03:53:31 10° NNW 03:58:23 42° WSW 03:59:50 34° SW
Cosmos 1763 Rocket 3.5 03:57:36 35° SW 03:59:46 69° WNW 04:04:57 10° NNE
GEOS 3 Rocket 3.7 03:54:42 10° SE 03:59:55 80° NE 04:05:07 10° NNW
Cosmos 1980 Rocket 2.3 03:58:11 28° SSW 04:01:14 76° ESE 04:06:54 10° NNE
ATLAS CENTAUR R/B 2.7 04:00:50 27° W 04:02:56 39° NW 04:07:38 10° NNE
RESURS DK-1 4.5 03:59:59 10° N 04:03:38 29° ENE 04:07:15 10° ESE
Cosmos 2227 Rocket 3.4 04:02:06 10° NW 04:06:24 23° W 04:06:27 23° WSW
CZ-2D R/B 4.1 04:06:09 10° NNE 04:10:28 57° E 04:13:44 17° S
ARIANE 5 R/B 2.7 04:07:36 10° N 04:12:37 55° WNW 04:15:18 27° SW
Cosmos 2322 Rocket 3.4 04:08:13 10° S 04:13:15 36° ESE 04:18:20 10° NE
ISS -3.3 04:14:23 21° WNW 04:16:17 53° SW 04:19:28 10° SE
Resurs 1-4 Rocket 2.1 04:11:16 10° N 04:16:30 68° WNW 04:19:45 23° SSW
Cosmos 2026 Rocket 4.3 04:10:41 10° N 04:17:02 71° E 04:23:15 10° SSE
Cosmos 1461 4.0 04:13:24 10° NNW 04:17:25 44° NE 04:21:14 10° SE
Cosmos 1634 Rocket 4.0 04:18:23 17° SSW 04:23:17 77° W 04:29:37 10° N
Cosmos 1470 3.9 04:22:00 10° SSE 04:25:44 42° E 04:29:31 10° NNE
UNK 4.1 04:23:05 22° SSW 04:25:46 44° W 04:30:16 10° NNW
Cosmos 540 Rocket 3.7 04:22:45 16° S 04:26:51 71° ESE 04:32:01 10° NNE
Cosmos 2297 Rocket 3.4 04:23:32 10° NW 04:27:41 21° W 04:28:44 20° WSW
Cosmos 2195 Rocket 4.4 04:21:59 10° N 04:28:08 84° W 04:34:14 10° S
PSLV R/B 4.1 04:26:38 10° NNE 04:30:28 62° ESE 04:33:47 13° S
Cosmos 1378 4.2 04:27:25 10° NNW 04:30:39 27° W 04:31:34 24° WSW
Cosmos 1092 Rocket 4.4 04:30:07 10° NNW 04:36:05 46° W 04:41:41 12° SSW
Thor Agena Rocket 4.2 04:32:07 10° SSE 04:37:02 56° ENE 04:41:59 10° N
CZ-4B R/B 3.6 04:35:42 10° NNE 04:39:31 47° E 04:43:07 10° S
Cosmos 2151 4.4 04:35:56 10° N 04:40:02 41° ENE 04:44:06 10° SSE
IRS-1D 4.4 04:36:26 10° N 04:40:48 32° WNW 04:43:53 17° WSW
ERS-2 4.5 04:41:12 10° NW 04:42:14 11° WNW 04:43:16 10° W
CZ-2C R/B 3.7 04:38:19 10° SSE 04:43:01 87° W 04:47:39 10° NNW
Cosmos 2360 4.3 04:40:39 16° SW 04:45:12 69° WNW 04:50:55 10° NNE
SL-16 R/B 2.5 04:40:59 10° S 04:46:35 66° ESE 04:52:12 10° NNE
Cosmos 1500 Rocket 3.5 04:43:55 10° NNW 04:48:19 73° W 04:52:39 10° S
UNKNOWN OBJECT B 3.5 04:44:47 10° N 04:48:23 35° WNW 04:50:51 17° SW
GPS 2-04 Rocket1 3.4 04:46:09 18° WSW 04:48:26 33° S 04:51:53 10° SE
Abrixas 2.5 04:49:52 10° WNW 04:52:53 58° SSW 04:55:54 10° SE
Cosmos 1743 Rocket 4.0 04:49:19 10° NNW 04:53:25 42° W 04:57:31 10° SSW
Milstar 3 Cent rocket 3.7 04:53:53 14° SW 04:57:45 27° S 05:04:59 10° ESE
Cosmos 2263 Rocket 3.3 04:55:34 10° NNW 05:00:59 49° ENE 05:06:21 10° SE
Okean O Rocket 1.8 04:57:01 10° N 05:01:21 58° WNW 05:05:41 10° SSW
Cosmos 1428 Rocket 4.4 04:55:48 10° N 05:01:57 81° W 05:08:03 10° S
SL-24 R/B - RUBIN 2 4.4 04:59:35 11° SW 05:05:02 78° NW 05:11:29 10° NNE
Cosmos 1953 3.8 05:02:41 13° WSW 05:05:15 22° WNW 05:08:27 10° NNW
CZ-4B R/B 3.2 05:01:27 10° N 05:07:00 75° WNW 05:12:25 10° SSW
PAYLOAD B 4.3 05:01:33 10° N 05:07:09 72° WNW 05:12:42 10° SSW
Cosmos 1733 3.1 05:04:44 10° SSW 05:08:29 70° W 05:12:18 10° N
Cosmos-2242 4.5 05:06:47 11° WSW 05:09:43 21° WNW 05:13:00 10° NNW
Cosmos 1328 3.9 05:05:49 10° N 05:09:53 83° E 05:13:55 10° S
Cosmos 2221 3.0 05:06:22 10° S 05:10:35 64° E 05:14:51 10° NNE
UNK 4.0 05:10:45 10° NW 05:12:53 23° NNE 05:14:39 10° ENE
CZ-2D R/B 3.6 05:13:06 10° NNW 05:17:08 22° WNW 05:21:08 10° WSW
Cosmos 2279 Rocket 4.3 05:11:24 10° SSW 05:17:25 49° WNW 05:23:30 10° N
ARGOS Delta rocket 4.1 05:14:58 10° N 05:20:01 60° WNW 05:24:45 10° SSW
Cosmos 1544 4.5 05:18:40 10° SW 05:21:35 22° WNW 05:24:32 10° NNW
Cosmos 372 Rocket 4.3 05:17:56 10° NNW 05:22:43 41° WSW 05:27:27 10° S
MOZ.5/SAFIR/RUBIN 5/SL-8 4.3 05:18:38 10° SSW 05:23:00 38° W 05:27:22 10° NNW
ADEOS II 2.6 05:20:27 10° NNE 05:25:42 65° ESE 05:30:55 10° S
DELTA 2 R/B (1) 4.3 05:22:01 10° SW 05:27:14 42° SSE 05:32:29 10° E
Cosmos 2058 2.9 05:26:22 10° N 05:30:37 83° W 05:34:49 10° S
SL-16 R/B 4.1 05:28:09 10° WSW 05:31:15 14° W 05:34:22 10° WNW
